Terminal Aerodrome Forecast
Issued by NWS

Home | Current Version | Previous Version | Text Only | Print | Product List | Glossary On
Versions: 1 2 3 4 5 6 7 8 9 10 11 12 13 14 15 16 17 18 19 20 21 22 23 24 25 26
000
FTUS44 KOUN 280532
TAFLAW
TAF
KLAW 280532Z 2806/2906 15008KT P6SM FEW080 PROB30 2823/2905 5SM
      TSRA BKN030CB=

USA.gov is the U.S. government's official web portal to all federal, state and local government web resources and services.